Total_Precipitation_Accumulation
0.03 0.06 0.25 0.34 0.33 0.33 0.33 0.36 0.38 0.39 0.45 0.53 0.54 0.55 0.54 0.48 0.46 0.45 0.43 0.40 0.39 0.44 0.53 0.61 0.64 0.65 0.61 0.53 0.44 0.41 0.39 0.37 0.35 0.34 0.38 0.41 0.40 0.34 0.29 0.28 0.28 0.29 0.42
0.04 0.06 0.20 0.26 0.29 0.32 0.35 0.37 0.35 0.32 0.39 0.47 0.48 0.50 0.53 0.51 0.48 0.52 0.49 0.47 0.46 0.49 0.54 0.61 0.61 0.60 0.54 0.50 0.47 0.41 0.38 0.35 0.29 0.25 0.24 0.27 0.36 0.37 0.34 0.33 0.31 0.36 0.39
0.03 0.05 0.15 0.22 0.26 0.32 0.35 0.34 0.30 0.28 0.34 0.39 0.42 0.47 0.54 0.54 0.51 0.51 0.49 0.47 0.48 0.55 0.58 0.59 0.58 0.57 0.51 0.49 0.50 0.43 0.40 0.33 0.26 0.22 0.18 0.20 0.34 0.43 0.40 0.36 0.34 0.40 0.40
0.01 0.03 0.09 0.19 0.26 0.32 0.34 0.32 0.31 0.30 0.31 0.36 0.41 0.45 0.49 0.51 0.52 0.51 0.47 0.46 0.51 0.59 0.65 0.65 0.63 0.61 0.55 0.50 0.48 0.43 0.44 0.36 0.24 0.19 0.13 0.18 0.34 0.51 0.48 0.44 0.40 0.43 0.44
0.01 0.03 0.10 0.21 0.27 0.32 0.36 0.35 0.33 0.32 0.34 0.36 0.40 0.45 0.53 0.52 0.51 0.48 0.44 0.44 0.49 0.59 0.66 0.66 0.61 0.58 0.56 0.54 0.49 0.46 0.49 0.41 0.25 0.14 0.11 0.17 0.29 0.52 0.48 0.48 0.45 0.42 0.40
0.02 0.03 0.11 0.22 0.29 0.34 0.37 0.37 0.36 0.36 0.39 0.40 0.43 0.48 0.55 0.57 0.56 0.51 0.46 0.42 0.43 0.50 0.58 0.59 0.55 0.56 0.56 0.51 0.45 0.48 0.56 0.49 0.24 0.12 0.15 0.20 0.26 0.52 0.58 0.55 0.49 0.44 0.43
0.02 0.05 0.13 0.25 0.33 0.37 0.39 0.39 0.41 0.41 0.44 0.46 0.49 0.53 0.58 0.58 0.58 0.56 0.54 0.49 0.45 0.44 0.48 0.51 0.52 0.53 0.54 0.50 0.47 0.55 0.62 0.46 0.19 0.17 0.19 0.21 0.28 0.62 0.84 0.74 0.56 0.48 0.46
0.03 0.06 0.15 0.30 0.37 0.42 0.44 0.44 0.45 0.48 0.51 0.53 0.55 0.59 0.60 0.58 0.57 0.57 0.55 0.50 0.46 0.42 0.41 0.43 0.45 0.48 0.48 0.48 0.49 0.52 0.55 0.34 0.16 0.15 0.17 0.18 0.32 0.72 0.94 0.89 0.72 0.58 0.52
0.04 0.08 0.17 0.29 0.37 0.45 0.48 0.48 0.50 0.53 0.55 0.58 0.60 0.62 0.62 0.59 0.59 0.61 0.57 0.52 0.49 0.47 0.42 0.37 0.38 0.39 0.38 0.40 0.44 0.44 0.39 0.26 0.16 0.20 0.18 0.21 0.34 0.75 0.96 1.00 0.88 0.72 0.59
0.08 0.12 0.20 0.30 0.37 0.44 0.49 0.53 0.53 0.56 0.59 0.63 0.65 0.64 0.61 0.61 0.62 0.61 0.55 0.49 0.50 0.50 0.45 0.41 0.38 0.36 0.33 0.32 0.32 0.29 0.24 0.20 0.14 0.20 0.29 0.27 0.32 0.68 0.94 0.96 0.90 0.83 0.69
0.15 0.18 0.26 0.35 0.42 0.47 0.53 0.57 0.62 0.66 0.72 0.74 0.72 0.69 0.70 0.67 0.63 0.55 0.47 0.47 0.50 0.52 0.46 0.44 0.42 0.39 0.36 0.30 0.25 0.22 0.17 0.13 0.14 0.24 0.29 0.32 0.46 0.83 1.04 1.01 0.98 0.91 0.82
0.16 0.21 0.29 0.39 0.46 0.54 0.58 0.66 0.77 0.78 0.80 0.79 0.69 0.66 0.68 0.63 0.60 0.55 0.50 0.49 0.53 0.53 0.51 0.49 0.48 0.46 0.42 0.33 0.31 0.28 0.18 0.13 0.14 0.16 0.20 0.26 0.50 0.92 1.15 1.14 1.15 1.07 0.95
0.13 0.20 0.28 0.41 0.52 0.57 0.60 0.68 0.78 0.81 0.80 0.80 0.75 0.70 0.68 0.70 0.67 0.64 0.59 0.61 0.60 0.57 0.56 0.56 0.59 0.54 0.49 0.45 0.44 0.38 0.28 0.23 0.20 0.15 0.15 0.21 0.35 0.66 1.01 1.17 1.22 1.23 1.18
0.17 0.23 0.32 0.45 0.54 0.57 0.58 0.64 0.70 0.72 0.71 0.72 0.72 0.74 0.75 0.75 0.70 0.68 0.65 0.66 0.68 0.66 0.62 0.60 0.58 0.55 0.52 0.47 0.45 0.43 0.40 0.38 0.29 0.22 0.16 0.18 0.23 0.32 0.57 0.88 1.13 1.27 1.34
0.20 0.27 0.38 0.47 0.55 0.62 0.65 0.69 0.72 0.68 0.64 0.67 0.70 0.74 0.70 0.64 0.59 0.54 0.54 0.53 0.50 0.49 0.49 0.51 0.53 0.52 0.50 0.46 0.42 0.38 0.39 0.41 0.37 0.31 0.26 0.24 0.23 0.25 0.35 0.55 0.85 1.15 1.36
0.23 0.30 0.43 0.52 0.58 0.66 0.66 0.67 0.70 0.68 0.65 0.68 0.68 0.65 0.63 0.60 0.54 0.48 0.45 0.45 0.43 0.39 0.36 0.37 0.38 0.40 0.41 0.39 0.35 0.31 0.32 0.35 0.36 0.34 0.33 0.34 0.29 0.26 0.30 0.41 0.62 0.92 1.27
0.26 0.34 0.44 0.56 0.68 0.73 0.71 0.72 0.75 0.73 0.70 0.69 0.68 0.64 0.63 0.59 0.56 0.53 0.48 0.44 0.43 0.43 0.42 0.41 0.40 0.39 0.36 0.34 0.31 0.29 0.28 0.28 0.31 0.34 0.35 0.37 0.37 0.35 0.33 0.39 0.51 0.74 1.12
0.29 0.39 0.48 0.61 0.75 0.82 0.80 0.80 0.78 0.78 0.79 0.76 0.71 0.69 0.64 0.60 0.57 0.56 0.53 0.49 0.47 0.50 0.52 0.51 0.46 0.44 0.40 0.36 0.34 0.31 0.30 0.28 0.26 0.29 0.34 0.35 0.35 0.35 0.35 0.37 0.49 0.68 0.94
0.29 0.40 0.51 0.61 0.76 0.88 0.92 0.89 0.87 0.81 0.83 0.83 0.78 0.72 0.69 0.63 0.58 0.55 0.54 0.55 0.56 0.61 0.59 0.56 0.52 0.47 0.44 0.41 0.38 0.37 0.34 0.31 0.30 0.30 0.31 0.34 0.36 0.35 0.35 0.37 0.42 0.54 0.74
0.29 0.39 0.51 0.64 0.81 0.93 1.09 1.12 1.09 1.01 0.90 0.88 0.84 0.74 0.67 0.67 0.63 0.61 0.59 0.59 0.63 0.66 0.64 0.60 0.54 0.49 0.46 0.46 0.46 0.44 0.38 0.33 0.31 0.31 0.30 0.32 0.35 0.36 0.36 0.39 0.44 0.43 0.49
0.37 0.43 0.51 0.66 0.82 0.99 1.12 1.20 1.16 1.10 0.95 0.89 0.87 0.82 0.72 0.69 0.71 0.71 0.65 0.66 0.65 0.66 0.63 0.61 0.60 0.57 0.52 0.50 0.55 0.56 0.50 0.40 0.34 0.30 0.31 0.33 0.35 0.39 0.47 0.52 0.58 0.54 0.47
0.43 0.46 0.50 0.62 0.74 0.92 1.04 1.09 1.15 1.10 1.02 0.92 0.89 0.87 0.79 0.70 0.73 0.80 0.74 0.69 0.67 0.66 0.68 0.68 0.66 0.66 0.64 0.58 0.59 0.66 0.61 0.55 0.43 0.33 0.31 0.33 0.37 0.45 0.56 0.62 0.68 0.69 0.62
0.45 0.49 0.54 0.58 0.66 0.78 1.03 1.24 1.36 1.41 1.29 1.12 1.01 0.92 0.82 0.74 0.68 0.76 0.80 0.75 0.71 0.68 0.66 0.65 0.64 0.64 0.66 0.60 0.56 0.75 0.81 0.59 0.39 0.30 0.27 0.29 0.30 0.32 0.37 0.45 0.52 0.58 0.65
0.44 0.54 0.63 0.61 0.68 0.78 0.95 1.25 1.41 1.46 1.34 1.08 0.93 0.90 0.87 0.81 0.73 0.70 0.78 0.80 0.78 0.76 0.71 0.66 0.64 0.63 0.69 0.71 0.61 0.57 0.60 0.60 0.60 0.42 0.27 0.25 0.25 0.26 0.25 0.27 0.33 0.39 0.50
0.44 0.56 0.68 0.73 0.78 0.87 0.95 1.13 1.35 1.46 1.39 1.25 1.11 1.00 0.93 0.91 0.86 0.78 0.75 0.79 0.80 0.80 0.79 0.74 0.69 0.70 0.72 0.76 0.73 0.62 0.55 0.48 0.49 0.58 0.40 0.29 0.28 0.26 0.26 0.26 0.28 0.29 0.34
0.42 0.51 0.67 0.79 0.82 0.94 0.99 1.09 1.22 1.39 1.49 1.46 1.35 1.22 1.07 1.01 0.96 0.93 0.81 0.78 0.80 0.81 0.82 0.79 0.73 0.72 0.74 0.74 0.73 0.69 0.70 0.66 0.54 0.56 0.51 0.36 0.33 0.31 0.32 0.32 0.32 0.31 0.33